Waarnemingen

Advertentie
Mijn weer
Annecy-Meythet, Frankrijk (7490): temperatuur & dauwpunt: 14.10.2018 15:00:00 - 20.10.2018 15:00:00 (CEST)Annecy-Meythet, Frankrijk (7490): temperatuur 5cm: 14.10.2018 15:00:00 - 20.10.2018 15:00:00 (CEST)Annecy-Meythet, Frankrijk (7490): temperatuur -20cm & temperatuur -100cm: 14.10.2018 15:00:00 - 20.10.2018 15:00:00 (CEST)Annecy-Meythet, Frankrijk (7490): windsnelheid & windstoten: 14.10.2018 15:00:00 - 20.10.2018 15:00:00 (CEST)Annecy-Meythet, Frankrijk (7490): windrichting: 14.10.2018 15:00:00 - 20.10.2018 15:00:00 (CEST)Annecy-Meythet, Frankrijk (7490): luchtdruk: 14.10.2018 15:00:00 - 20.10.2018 15:00:00 (CEST)Annecy-Meythet, Frankrijk (7490): zicht: 14.10.2018 15:00:00 - 20.10.2018 15:00:00 (CEST)Annecy-Meythet, Frankrijk (7490): neerslag: 14.10.2018 15:00:00 - 20.10.2018 15:00:00 (CEST)
Datum & Tijd tt [°C] td [°C] tt 5cm [°C] tt -20cm [°C] tt -100cm [°C] ff [km/u] ff [kn] fx [km/u] fx [kn] dd ppp [hPa] vv [km] rr [mm]
20.10.2018 15:00:00 - - - - - - - - - - - - -
20.10.2018 14:00:00 15,6 9,9 15,5 13,5 16,5 15 8 27 15 NO 1025,6 7 0,0
20.10.2018 13:00:00 13,7 9,9 14,7 13,3 16,5 16 9 28 15 NO 1026,7 6 0,0
20.10.2018 12:00:00 13,4 10,2 13,4 13,1 16,5 13 7 23 12 NO 1026,9 5 0,0
20.10.2018 11:00:00 12,9 10,1 12,7 12,9 16,5 18 10 25 13 NO 1026,7 4,4 0,0
20.10.2018 10:00:00 11,9 10,0 9,7 12,8 16,5 7 4 16 8 N 1027,0 3,6 0,0
20.10.2018 09:00:00 9,1 8,2 6,9 12,9 16,5 4 2 10 5 NNW 1027,1 3,2 0,0
20.10.2018 08:00:00 6,7 6,3 3,3 13,0 16,5 3 2 8 4 W 1026,5 3,2 0,0
20.10.2018 07:00:00 6,8 6,1 3,5 13,3 16,5 3 2 6 3 N 1025,8 3,2 0,0
20.10.2018 06:00:00 6,5 5,6 4,1 13,5 16,5 0 0 6 4 N 1025,5 3,0 0,0
20.10.2018 05:00:00 7,1 6,2 4,1 13,7 16,5 3 2 5 3 NNW 1024,9 3,3 0,0
20.10.2018 04:00:00 7,5 6,8 4,8 13,9 16,5 0 0 8 5 N 1024,7 3,4 0,0
20.10.2018 03:00:00 7,8 7,0 4,9 14,2 16,5 0 0 7 4 N 1024,4 3,5 0,0
20.10.2018 02:00:00 8,9 7,5 5,4 14,4 16,5 3 2 7 4 NO 1024,3 4,4 0,0
20.10.2018 01:00:00 9,5 7,8 6,4 14,7 16,6 3 2 6 3 NNW 1024,0 6 0,0
20.10.2018 00:00:00 11,0 8,7 7,5 14,9 16,6 2 1 13 7 OZO 1023,3 7 0,0
19.10.2018 23:00:00 12,0 8,8 8,7 15,1 16,5 7 4 14 8 NNW 1022,7 9 0,0
19.10.2018 22:00:00 12,7 9,0 9,8 15,3 16,6 6 3 10 6 NNW 1022,2 10 0,0
19.10.2018 21:00:00 14,8 9,4 12,6 15,4 16,5 7 4 16 9 NW 1021,1 11 0,0
19.10.2018 20:00:00 15,8 9,5 12,3 15,6 16,6 5 3 14 7 NNW 1020,5 12 0,0
19.10.2018 19:00:00 17,2 10,1 15,7 15,6 16,6 9 5 19 10 NW 1019,5 13 0,0
19.10.2018 18:00:00 19,1 10,1 19,3 15,6 16,6 9 5 19 10 WNW 1018,3 12 0,0
19.10.2018 17:00:00 19,8 9,9 21,4 15,4 16,6 12 7 22 12 WNW 1018,1 15 0,0
19.10.2018 16:00:00 20,2 10,3 22,9 15,0 16,6 14 7 23 13 W 1017,9 15 0,0
19.10.2018 15:00:00 20,4 10,2 24,6 14,5 16,6 12 6 21 12 W 1017,6 10 0,0
19.10.2018 14:00:00 19,5 10,2 24,4 13,9 16,6 11 6 19 10 WNW 1018,1 8 0,0
19.10.2018 13:00:00 18,7 10,3 22,0 13,4 16,6 4 2 11 6 WNW 1019,0 10 0,0
19.10.2018 12:00:00 16,2 9,8 18,7 13,0 16,6 4 2 11 6 Z 1019,8 10 0,0
19.10.2018 11:00:00 13,9 9,5 16,3 12,8 16,6 4 2 9 5 ZW 1020,4 10 0,0
19.10.2018 10:00:00 11,4 8,1 8,4 12,8 16,6 0 0 6 3 N 1020,6 8 0,0
19.10.2018 09:00:00 8,1 6,6 5,2 12,9 16,6 3 2 6 3 N 1021,2 6 0,0
19.10.2018 08:00:00 7,1 6,2 4,0 13,1 16,6 6 3 10 5 NNO 1020,9 6 0,0
19.10.2018 07:00:00 7,0 6,3 4,1 13,3 16,6 3 1 9 5 NNO 1020,7 6 0,0
19.10.2018 06:00:00 7,2 6,1 3,8 13,4 16,6 3 2 8 4 NNW 1020,3 8 0,2
19.10.2018 05:00:00 6,8 5,7 4,0 13,6 16,6 2 1 7 4 N 1020,1 8 0,0
19.10.2018 04:00:00 7,9 6,7 4,6 13,9 16,6 4 2 7 4 N 1019,6 9 0,0
19.10.2018 03:00:00 7,9 6,4 4,8 14,1 16,6 3 2 6 3 N 1019,7 11 0,0
19.10.2018 02:00:00 8,5 6,8 5,2 14,3 16,6 3 2 8 4 NNO 1019,5 13 0,0
19.10.2018 01:00:00 8,9 6,5 5,8 14,6 16,6 3 1 6 3 N 1019,1 14 0,0
19.10.2018 00:00:00 10,1 7,0 6,7 14,8 16,6 6 3 8 5 NO 1018,6 14 0,0
18.10.2018 23:00:00 10,3 7,4 6,8 15,1 16,6 5 3 7 4 ONO 1018,1 15 0,0
18.10.2018 22:00:00 12,0 7,9 8,3 15,3 16,6 4 2 8 5 N 1017,5 17 0,0
18.10.2018 21:00:00 13,3 8,6 9,3 15,5 16,6 4 2 7 4 NO 1016,9 18 0,0
18.10.2018 20:00:00 14,8 8,5 11,1 15,7 16,6 4 2 13 7 NNW 1015,9 20 0,0
18.10.2018 19:00:00 17,1 8,8 13,7 15,8 16,6 5 3 16 9 NW 1015,0 20 0,0
18.10.2018 18:00:00 20,1 8,4 20,5 15,7 16,6 8 4 21 11 NNO 1013,8 20 0,0
18.10.2018 17:00:00 21,5 8,4 23,9 15,4 16,6 8 5 26 14 NNO 1013,3 34 0,0
18.10.2018 16:00:00 22,1 8,6 25,7 15,1 16,6 9 5 28 15 NNW 1013,2 20 0,0
18.10.2018 15:00:00 21,6 8,5 26,0 14,7 16,7 10 6 28 15 N 1013,7 32 0,0
18.10.2018 14:00:00 20,9 7,8 25,4 14,2 16,7 16 9 29 16 ONO 1014,2 32 0,0
18.10.2018 13:00:00 20,0 9,3 25,2 13,7 16,6 3 2 11 6 ZW 1015,1 13 0,0
18.10.2018 12:00:00 18,2 9,3 21,9 13,3 16,6 4 2 11 6 Z 1016,3 15 0,0
18.10.2018 11:00:00 16,0 8,7 17,7 13,1 16,7 2 1 8 4 OZO 1016,9 13 0,0
18.10.2018 10:00:00 12,4 7,7 10,8 13,1 16,6 2 1 8 4 Z 1017,6 12 0,0
18.10.2018 09:00:00 8,4 6,5 3,7 13,2 16,6 0 0 7 4 N 1018,1 8 0,0
18.10.2018 08:00:00 6,2 4,8 3,4 13,4 16,6 0 0 8 4 N 1018,2 7 0,0
18.10.2018 07:00:00 6,6 5,4 3,5 13,6 16,7 0 0 6 4 N 1018,0 9 0,0
18.10.2018 06:00:00 6,8 5,1 4,2 13,8 16,7 3 2 8 4 NNW 1017,8 11 0,0
18.10.2018 05:00:00 7,4 6,0 4,3 14,1 16,7 5 3 8 4 NO 1017,9 11 0,0
18.10.2018 04:00:00 7,7 6,0 4,9 14,3 16,7 4 2 6 3 N 1018,0 12 0,0
18.10.2018 03:00:00 8,5 6,1 5,5 14,5 16,7 3 2 8 4 NNO 1017,7 13 0,0
18.10.2018 02:00:00 9,1 6,0 6,3 14,7 16,7 6 3 9 5 N 1017,9 15 0,0
18.10.2018 01:00:00 10,0 6,9 7,4 15,0 16,7 6 3 9 5 NNO 1017,8 17 0,0
18.10.2018 00:00:00 10,8 6,9 7,0 15,2 16,7 6 3 8 5 NO 1017,4 17 0,0
17.10.2018 23:00:00 11,2 6,7 7,2 15,5 16,7 2 1 9 5 NNO 1017,3 20 0,0
17.10.2018 22:00:00 12,5 7,0 9,6 15,7 16,7 5 3 15 8 NO 1016,8 32 0,0
17.10.2018 21:00:00 14,3 7,3 10,3 16,0 16,7 8 4 11 6 NNW 1016,2 30 0,0
17.10.2018 20:00:00 16,2 6,9 11,4 16,1 16,7 3 2 10 5 NW 1015,5 7 0,0
17.10.2018 19:00:00 18,5 7,0 16,3 16,2 16,7 8 5 16 9 NNW 1014,7 20 0,0
17.10.2018 18:00:00 20,8 7,1 21,8 16,1 16,7 11 6 25 14 NW 1013,8 19 0,0
17.10.2018 17:00:00 21,9 6,1 24,2 15,9 16,7 13 7 26 14 NW 1013,4 39 0,0
17.10.2018 16:00:00 22,6 6,4 25,3 15,5 16,7 12 7 28 15 NNW 1013,4 50 0,0
17.10.2018 15:00:00 22,7 6,9 26,1 15,1 16,7 14 7 28 15 NW 1013,7 42 0,0
17.10.2018 14:00:00 22,0 7,4 25,3 14,6 16,7 11 6 26 14 W 1014,6 44 0,0
17.10.2018 13:00:00 20,1 7,8 24,7 14,2 16,7 9 5 18 10 W 1015,9 45 0,0
17.10.2018 12:00:00 18,4 7,8 23,6 13,7 16,7 8 4 15 8 Z 1017,0 1,0 0,0
17.10.2018 11:00:00 15,9 6,9 18,7 13,6 16,7 3 1 8 4 NNO 1017,9 20 0,0
17.10.2018 10:00:00 12,5 7,0 11,5 13,6 16,7 2 1 7 4 N 1019,1 20 0,0
17.10.2018 09:00:00 8,9 6,3 5,3 13,7 16,7 3 2 8 4 N 1019,7 14 0,0
17.10.2018 08:00:00 7,4 5,4 4,0 13,9 16,7 5 3 7 4 N 1019,9 14 0,0
17.10.2018 07:00:00 7,9 6,4 4,6 14,2 16,7 3 2 9 5 NNO 1019,8 14 0,0
17.10.2018 06:00:00 8,5 5,9 5,1 14,4 16,7 6 3 9 5 NO 1019,4 15 0,0
17.10.2018 05:00:00 8,3 5,9 5,6 14,6 16,7 6 4 12 6 N 1019,4 18 0,0
17.10.2018 04:00:00 9,0 6,4 6,4 14,8 16,7 6 4 11 6 NO 1019,6 19 0,0
17.10.2018 03:00:00 9,4 6,7 6,4 15,1 16,7 5 3 9 5 NO 1020,1 17 0,0
17.10.2018 02:00:00 9,9 6,8 7,4 15,3 16,8 7 4 9 5 ONO 1020,3 19 0,0
17.10.2018 01:00:00 10,8 6,7 8,4 15,6 16,8 6 4 11 6 NO 1020,2 26 0,0
17.10.2018 00:00:00 11,1 7,4 8,5 15,8 16,7 6 4 10 6 N 1020,3 20 0,0
16.10.2018 23:00:00 11,8 6,9 9,4 16,1 16,8 7 4 10 5 NNO 1020,1 29 0,0
16.10.2018 22:00:00 12,8 7,5 9,9 16,3 16,7 8 5 11 6 NO 1019,5 30 0,0
16.10.2018 21:00:00 14,3 8,3 10,9 16,6 16,7 7 4 14 7 NNO 1018,9 33 0,0
16.10.2018 20:00:00 15,5 8,5 11,6 16,8 16,7 6 3 11 6 NO 1018,2 36 0,0
16.10.2018 19:00:00 19,3 8,6 14,4 16,9 16,8 4 2 16 9 NW 1016,9 24 0,0
16.10.2018 18:00:00 21,7 8,6 21,2 16,9 16,8 12 7 21 11 ZW 1016,1 39 0,0
16.10.2018 17:00:00 23,3 8,2 25,6 16,7 16,8 9 5 22 12 WZW 1015,6 38 0,0
16.10.2018 16:00:00 23,2 6,9 27,5 16,3 16,8 10 5 21 11 WZW 1015,6 20 0,0
16.10.2018 15:00:00 22,8 6,9 26,5 16,0 16,8 13 7 23 12 ZW 1016,0 42 0,0
16.10.2018 14:00:00 22,5 6,7 26,7 15,5 16,8 6 3 19 10 WZW 1016,3 46 0,0
16.10.2018 13:00:00 21,5 6,6 26,6 15,1 16,8 5 3 18 10 ZZW 1016,8 31 0,0
16.10.2018 12:00:00 20,5 7,5 25,9 14,7 16,8 5 3 14 8 ZZW 1017,0 16 0,0
16.10.2018 11:00:00 19,1 6,9 21,8 14,6 16,8 3 1 7 4 Z 1017,1 33 0,0
16.10.2018 10:00:00 17,1 7,7 14,9 14,6 16,8 0 0 8 4 N 1017,4 20 0,0
16.10.2018 09:00:00 12,6 8,1 8,2 14,7 16,8 7 4 10 5 NO 1018,0 18 0,0
16.10.2018 08:00:00 11,2 8,2 8,4 14,9 16,8 3 2 6 3 WNW 1017,8 15 0,0
16.10.2018 07:00:00 12,5 8,4 10,6 15,0 16,8 3 2 7 4 NW 1017,5 29 0,0
16.10.2018 06:00:00 12,3 8,2 10,7 15,1 16,8 3 2 4 2 N 1017,3 20 0,0
16.10.2018 05:00:00 12,7 8,2 11,0 15,2 16,8 2 1 8 4 N 1016,7 18 0,0
16.10.2018 04:00:00 13,2 8,3 11,8 15,3 16,8 7 4 9 5 NO 1016,5 34 0,0
16.10.2018 03:00:00 13,4 7,4 11,8 15,3 16,8 3 2 6 3 NO 1016,6 36 0,0
16.10.2018 02:00:00 13,3 8,4 11,5 15,4 16,8 0 0 6 4 N 1016,5 40 0,0
16.10.2018 01:00:00 13,8 7,8 11,4 15,5 16,8 5 3 9 5 N 1015,7 39 0,0
16.10.2018 00:00:00 14,7 7,5 12,9 15,6 16,8 3 2 10 5 ZW 1015,3 42 0,0
15.10.2018 23:00:00 15,0 6,8 12,9 15,8 16,8 6 3 17 9 NNO 1014,8 50 0,0
15.10.2018 22:00:00 15,3 7,3 12,9 16,0 16,8 7 4 12 6 N 1014,2 45 0,0
15.10.2018 21:00:00 15,8 7,5 12,7 16,1 16,8 6 4 9 5 NO 1013,9 43 0,0
15.10.2018 20:00:00 16,8 7,7 13,8 16,2 16,8 5 3 8 5 N 1013,4 47 0,0
15.10.2018 19:00:00 18,3 7,4 15,2 16,2 16,8 4 2 11 6 WZW 1012,4 11 0,0
15.10.2018 18:00:00 20,9 5,7 19,3 16,2 16,8 7 4 14 7 NW 1011,2 56 0,0
15.10.2018 17:00:00 22,2 5,2 22,4 16,0 16,8 10 5 21 11 NW 1010,4 49 0,0
15.10.2018 16:00:00 22,3 5,2 22,8 15,7 16,8 10 5 29 16 WNW 1010,0 42 0,0
15.10.2018 15:00:00 23,7 5,1 25,8 15,4 16,8 10 5 21 11 W 1009,5 20 0,0
15.10.2018 14:00:00 23,4 5,3 25,0 15,0 16,8 5 3 21 11 W 1009,9 20 0,0
15.10.2018 13:00:00 21,3 7,5 23,2 14,5 16,8 11 6 24 13 WNW 1010,6 39 0,0
15.10.2018 12:00:00 20,0 7,0 21,7 14,2 16,8 11 6 18 10 WNW 1011,0 51 0,0
15.10.2018 11:00:00 18,5 7,0 19,6 14,1 16,8 8 4 12 7 NW 1011,3 37 0,0
15.10.2018 10:00:00 14,1 7,2 13,2 14,0 16,8 4 2 8 5 ZZW 1012,2 20 0,0
15.10.2018 09:00:00 10,6 7,5 7,3 14,2 16,8 3 2 11 6 NO 1012,9 19 0,0
15.10.2018 08:00:00 9,8 6,9 5,1 14,4 16,8 9 5 16 9 N 1012,8 24 0,0
15.10.2018 07:00:00 8,5 5,1 6,0 14,6 16,8 3 2 13 7 NW 1012,8 36 0,0
15.10.2018 06:00:00 8,7 5,8 6,1 14,8 16,8 4 2 10 5 N 1013,1 20 0,0
15.10.2018 05:00:00 8,9 6,5 6,5 15,1 16,8 5 3 10 5 NNO 1013,1 26 0,0
15.10.2018 04:00:00 9,6 7,5 7,5 15,3 16,8 3 2 8 4 ZZW 1013,1 20 0,0
15.10.2018 03:00:00 9,8 7,4 7,6 15,5 16,8 3 2 11 6 N 1013,5 28 0,0
15.10.2018 02:00:00 10,5 7,4 8,1 15,8 16,8 4 2 11 6 ONO 1013,3 33 0,0
15.10.2018 01:00:00 11,2 7,9 8,9 16,0 16,8 2 1 17 9 ONO 1013,3 34 0,0
15.10.2018 00:00:00 11,8 8,6 10,0 16,3 16,8 6 3 14 7 NO 1013,4 37 0,0
14.10.2018 23:00:00 12,8 9,4 10,9 16,5 16,8 3 2 10 5 N 1013,0 41 0,0
14.10.2018 22:00:00 14,2 10,0 12,0 16,7 16,8 10 5 13 7 ONO 1012,3 45 0,0
14.10.2018 21:00:00 15,4 10,6 13,6 16,9 16,8 7 4 13 7 NO 1011,8 47 0,0
14.10.2018 20:00:00 16,5 11,0 14,3 17,1 16,8 5 3 11 6 O 1011,4 50 0,0
14.10.2018 19:00:00 18,7 10,8 15,8 17,2 16,8 0 0 7 4 N 1010,7 7 0,0
14.10.2018 18:00:00 20,2 9,1 19,1 17,1 16,8 5 3 6 3 N 1010,3 60 0,0
14.10.2018 17:00:00 20,7 9,3 22,0 17,0 16,8 4 2 11 6 Z 1010,5 60 0,0
14.10.2018 16:00:00 20,8 9,1 22,1 16,7 16,8 6 3 14 8 ZZW 1011,1 58 0,0
14.10.2018 15:00:00 21,0 9,3 23,1 16,3 16,8 6 3 17 9 ZZW 1011,1 55 0,0

tt = temperatuur
td = dauwpunt
tt 5cm = temperatuur 5cm
tt -20cm = temperatuur -20cm
tt -100cm = temperatuur -100cm
ff = windsnelheid
fx = windstoten
dd = windrichting
ppp = luchtdruk
vv = zicht
rr = neerslag

Weerstations in de omgeving